Location: Star Camp Observatory
(34.2910°N, 116.3827°W)
Time: 03:21:29
(UTC-07:00)

OTV 5 (USA 277) - Visible Passes

Search period start: 26 March 2019 00:00
Search period end: 05 April 2019 00:00
Orbit: 315 x 320 km, 54.5° (Epoch: 14 March)

Date Brightness Start Highest point End Pass type
(mag) Time Alt. Az. Time Alt. Az. Time Alt. Az.
30 Mar ? 05:27:20 13° S 05:29:15 28° SE 05:31:38 10° ENE visible
31 Mar ? 05:42:07 19° SW 05:43:51 68° NW 05:46:33 10° NE visible
01 Apr ? 04:25:51 12° E 04:25:51 12° E 04:26:13 10° E visible
01 Apr ? 05:56:45 12° W 05:58:38 21° NW 06:00:47 10° NNE visible
02 Apr ? 04:40:21 24° ENE 04:40:21 24° ENE 04:41:39 10° NE visible
03 Apr ? 04:54:44 24° N 04:54:44 24° N 04:56:11 10° NNE visible
04 Apr ? 05:09:02 13° NNW 05:09:02 13° NNW 05:09:57 10° N visible
